Regional Weather Roundup
Issued by NWS

Home | Current Version | Previous Version | Text Only | Print | Product List | Glossary On
Versions: 1 2 3 4 5 6 7 8 9 10 11 12 13 14 15 16 17 18 19 20 21 22 23 24 25 26 27 28 29 30 31 32 33 34 35 36 37 38 39 40 41 42 43 44 45 46 47 48 49 50
000
ASUS45 KBOU 260607
RWRCO

WEATHER ROUNDUP FOR COLORADO
NATIONAL WEATHER SERVICE DENVER/BOULDER CO
1200 AM MDT SUN APR 26 2015

NOTE: "FAIR" INDICATES FEW OR NO CLOUDS BELOW 12000 FEET WITH NO
SIGNIFICANT WEATHER AND/OR OBSTRUCTIONS TO VISIBILITY.

COZ001>005-013-030-031-260700-
...NORTHWEST COLORADO...

CITY           SKY/WX    TMP DP  RH WIND       PRES   REMARKS
CRAIG          CLOUDY    45  37  73 E9        29.77F
HAYDEN         CLOUDY    39  36  87 NE9       29.79F
MEEKER         MOCLDY    42  36  79 VRB3      29.76F
MOUNT WERNER   NOT AVBL
STEAMBOAT SPGS CLOUDY    39  38  94 SW8       29.83R
WALDEN         MOCLDY    34  32  93 E9        29.83F WCI  26
$$

COZ006>008-011-260700-
...WEST CENTRAL VALLEYS...

CITY           SKY/WX    TMP DP  RH WIND       PRES   REMARKS
GRAND JUNCTION CLOUDY    45  45 100 E7        29.73F
MONTROSE       CLOUDY    45  39  79 S5        29.79S
EAGLE          CLOUDY    39  37  93 NE3       29.85R
RIFLE          LGT RAIN  45  42  89 N5        29.77S
DELTA          CLOUDY    49  42  74 MISG      29.77
NUCLA          CLOUDY    43  37  81 SE12      29.82S
$$

COZ017>023-064>068-260700-
...SOUTHWEST COLORADO...

CITY           SKY/WX    TMP DP  RH WIND       PRES   REMARKS
DURANGO        PTCLDY    38  34  85 SW5       29.81S
CORTEZ         LGT RAIN  46  38  73 CALM      29.81F
PAGOSA SPRINGS PTCLDY    38  36  94 NE7       29.87S
TELLURIDE      SNOW      34  34  99 S3G16     29.86S VSB 1/2
WOLF CREEK PAS NOT AVBL
$$

COZ009-010-012-014-032>034-037-058>063-260700-
...CENTRAL COLORADO...

CITY           SKY/WX    TMP DP  RH WIND       PRES   REMARKS
ASPEN          CLOUDY    36  35  96 NW6       29.82F
BUENA VISTA    MOCLDY    38  35  89 W8        29.84F
COPPER MTN       N/A     30  27  86 E7G16     29.94S WCI  23
BERTHOUD PASS  LGT SNOW  23  16  74 SE28G35   29.96F WCI   6
COTTONWOOD PAS CLOUDY    37  30  75 CALM      29.90F
GUNNISON       CLOUDY    41  32  70 NW6       29.85S
KREMMLING      RAIN      37  36  93 CALM      29.86R
LEADVILLE      LGT SNOW  30  30 100 CALM      29.88S FOG
SALIDA         MOCLDY    46  36  68 N10       29.90S
SUNLIGHT       MOCLDY    32  30  93 CALM      29.93R
WILKERSON PASS CLOUDY    32  27  80 S7        29.97S WCI  26
$$

COZ069>075-260700-
...SAN LUIS VALLEY/SANGRE DE CRISTO MOUNTAINS...

CITY           SKY/WX    TMP DP  RH WIND       PRES   REMARKS
ALAMOSA        MOCLDY    34  26  72 SE3       29.84S
LA VETA PASS   PTCLDY    34  25  69 S8G17     29.91S WCI  27
SAGUACHE       CLOUDY    37  28  70 S5        29.85S
$$

COZ035-036-038>040-260700-
...NORTHERN COLORADO FRONT RANGE...

CITY           SKY/WX    TMP DP  RH WIND       PRES   REMARKS
DENVER INTL AP CLOUDY    48  42  80 N8        29.78F
DMNS CITY PARK   N/A     49  41  74 NW5       29.78S
AURORA         CLOUDY    47  42  81 NW5       29.79F
FRONT RANGE AP CLOUDY    50  43  76 NE6       29.79S
ERIE MUNI ARPT CLOUDY    49  43  80 N7        29.78F
BOULDER MUN AP CLOUDY    46  43  87 N6        29.79R
CENTENNIAL     CLOUDY    47  39  74 W5        29.79R
BROOMFIELD     CLOUDY    48  43  81 N8        29.79S
FORT COLLINS   CLOUDY    48  43  81 N5        29.82R
LONGMONT       CLOUDY    52  44  74 N6        29.81S
$$

COZ041-046-047-076>085-087-088-260700-
...PIKES PEAK/PALMER DIVIDE AND SOUTHERN FOOTHILLS...

CITY           SKY/WX    TMP DP  RH WIND       PRES   REMARKS
COLO. SPRINGS  CLOUDY    54  33  45 E10       29.79S
A. F. ACADEMY  LGT RAIN  50  33  52 VRB2      29.81R
ELLICOTT       CLOUDY   N/A N/A N/A SE12      29.78S
FALCON         CLOUDY    49  33  54 SE8       29.83R
FORT CARSON    MOCLDY    54  33  45 SE9       29.76R
LIMON          CLOUDY    52  43  71 SE16G25   29.77R
MONUMENT HILL  CLOUDY    41  34  75 N5        29.82S
TRINIDAD       CLEAR     49  28  44 W12       29.72F
$$

COZ042>045-048>051-090-091-260700-
...NORTHEAST COLORADO...

CITY           SKY/WX    TMP DP  RH WIND       PRES   REMARKS
GREELEY ARPT   CLOUDY    48  39  71 E9        29.80R
AKRON          CLOUDY    47  46  97 E17       29.80S
BURLINGTON     CLOUDY    51  49  92 SE24      29.77R FOG
WRAY           CLOUDY    51  49  92 E15G24    29.83R
STERLING       CLOUDY    46  46 100 E16G22    29.78F
HOLYOKE        TSTM      46  43  87 NE8       29.88F
FORT MORGAN    CLOUDY    47  45  91 NE16      29.81S
$$

COZ086-089-092>099-260700-
...SOUTHEAST COLORADO...

CITY           SKY/WX    TMP DP  RH WIND       PRES   REMARKS
PUEBLO         MOCLDY    54  35  48 NE13      29.70S
LA JUNTA       PTCLDY    56  40  55 E12       29.69R
LAMAR          MOCLDY    56  51  84 E20G29    29.69S
SPRINGFIELD      N/A     48  36  63 E12       29.72R
$$



USA.gov is the U.S. government's official web portal to all federal, state and local government web resources and services.